Sarasota, FL

5:23 AM EST on December 09, 2019 (GMT -0500)
Sarasota-bradenton

Weather History for KSRQ - August, 2019

Change the Weather History Date:

Wednesday, August 14, 2019

  Actual Average Record
Temperature  
Mean Temperature 82 °F 82 °F  
Max Temperature 87 °F 90 °F 98 °F (1938)
Min Temperature 76 °F 74 °F 60 °F (1972)
Degree Days  
Heating Degree Days 0 0  
Month to date heating degree days 0 0  
Since 1 June heating degree days 0 0  
Since 1 July heating degree days 0 0  
Cooling Degree Days 17 17  
Month to date cooling degree days 264 238  
Year to date cooling degree days 2535 2000  
Since 1 June cooling degree days 1378 1249  
Growing Degree Days 32 (Base 50)    
Moisture  
Dew Point 77 °F    
Average Humidity 85    
Maximum Humidity 94    
Minimum Humidity 77    
Precipitation  
Precipitation 1.07 in 0.34 in 5.90 in (1928)
Month to date precipitation 5.57 3.98  
Year to date precipitation 34.10 33.17  
Sea Level Pressure  
Sea Level Pressure 29.94 in    
Wind  
Wind Speed 7 mph (SSW)    
Max Wind Speed 18 mph    
Max Gust Speed 27 mph    
Visibility 8 miles    
Events Rain , Thunderstorm    
T = Trace of Precipitation, MM = Missing Value Source: NWS Daily Summary

Daily Weather History Graph

Daily Weather History Graph

Search for Another Location

Airport or City:

Astronomy

Aug. 14, 2019 Rise Set
Actual Time 7:00 AM EDT 8:08 PM EDT
Civil Twilight 6:35 AM EDT 8:33 PM EDT
Nautical Twilight 6:06 AM EDT 9:02 PM EDT
Astronomical Twilight 5:36 AM EDT 9:32 PM EDT
Moon 7:55 PM EDT (8/14) 6:05 AM EDT (8/14)
Length of Visible Light 13h 57m
Length of Day
13h 08m
Waxing Gibbous, 99% of the Moon is Illuminated
Aug 14
Waxing Gibbous
Aug 15
Full
Aug 23
Last Quarter
Aug 30
New
Sep 5
First Quarter

Hourly Weather History & Observations

Time (EDT) Temp. Heat Index Dew Point Humidity Pressure Visibility Wind Dir Wind Speed Gust Speed Precip Events Conditions
12:53 AM 80.1 °F 86.7 °F 79.0 °F 96% 29.93 in 10.0 mi SSE 5.8 mph - N/A   Clear
1:53 AM 82.9 °F 91.8 °F 77.0 °F 82% 29.91 in 10.0 mi SW 3.5 mph - N/A   Clear
2:53 AM 84.0 °F 94.8 °F 78.1 °F 82% 29.91 in 10.0 mi SW 3.5 mph - N/A   Partly Cloudy
3:11 AM 81.0 °F 89.2 °F 79.0 °F 94% 29.90 in 10.0 mi Calm Calm - N/A   Mostly Cloudy
3:28 AM 82.9 °F 91.8 °F 77.0 °F 82% 29.90 in 10.0 mi West 6.9 mph - 0.00 in Rain Light Rain
3:53 AM 84.0 °F 94.8 °F 78.1 °F 82% 29.91 in 10.0 mi SW 6.9 mph - 0.00 in Thunderstorm Thunderstorm
4:08 AM 84.0 °F 94.8 °F 78.1 °F 82% 29.91 in 10.0 mi SW 5.8 mph - N/A   Scattered Clouds
4:16 AM 84.0 °F 94.8 °F 78.1 °F 82% 29.91 in 10.0 mi SW 4.6 mph - N/A   Mostly Cloudy
4:24 AM 84.0 °F 94.8 °F 78.1 °F 82% 29.91 in 10.0 mi WSW 5.8 mph - N/A   Scattered Clouds
4:53 AM 82.9 °F 91.8 °F 77.0 °F 82% 29.92 in 10.0 mi West 13.8 mph - N/A   Mostly Cloudy
5:35 AM 82.0 °F 89.4 °F 75.9 °F 82% 29.93 in 10.0 mi West 3.5 mph - 0.01 in Thunderstorm Mostly Cloudy
5:53 AM 82.0 °F 88.6 °F 75.0 °F 79% 29.93 in 10.0 mi Calm Calm - 0.01 in Thunderstorm Overcast
6:20 AM 81.0 °F 86.2 °F 73.9 °F 79% 29.93 in 10.0 mi Calm Calm - N/A   Mostly Cloudy
6:53 AM 80.1 °F 85.8 °F 77.0 °F 90% 29.94 in 10.0 mi ENE 3.5 mph - N/A   Partly Cloudy
7:53 AM 81.0 °F 87.9 °F 77.0 °F 88% 29.95 in 10.0 mi SSE 4.6 mph - 0.00 in Rain Rain
8:33 AM 82.9 °F 93.8 °F 79.0 °F 88% 29.97 in 10.0 mi ESE 4.6 mph - 0.00 in Rain , Thunderstorm Rain
8:53 AM 84.0 °F 96.0 °F 79.0 °F 85% 29.96 in 10.0 mi ESE 8.1 mph - 0.00 in Rain , Thunderstorm Rain
9:22 AM 82.0 °F 91.0 °F 78.1 °F 88% 29.96 in 10.0 mi SE 8.1 mph - 0.00 in Rain , Thunderstorm Thunderstorms and Rain
9:37 AM 81.0 °F 87.9 °F 77.0 °F 88% 29.97 in 1.8 mi NW 4.6 mph - 0.11 in Rain , Thunderstorm Thunderstorms and Rain
9:45 AM 79.0 °F - 77.0 °F 94% 29.97 in 2.0 mi Calm Calm - 0.16 in Rain , Thunderstorm Thunderstorms and Rain
9:53 AM 80.1 °F 85.8 °F 77.0 °F 90% 29.98 in 2.0 mi Calm Calm - 0.24 in Rain , Thunderstorm Thunderstorms and Rain
10:12 AM 80.1 °F 86.4 °F 78.1 °F 94% 29.98 in 3.0 mi SSE 8.1 mph - 0.10 in Rain , Thunderstorm Thunderstorms and Rain
10:20 AM 79.0 °F - 77.0 °F 94% 29.98 in 2.5 mi South 5.8 mph - 0.15 in Rain , Thunderstorm Rain
10:30 AM 80.1 °F 86.4 °F 78.1 °F 94% 29.98 in 2.0 mi SE 6.9 mph - 0.23 in Rain Rain
10:41 AM 79.0 °F - 78.1 °F 97% 29.98 in 3.0 mi SSE 3.5 mph - 0.26 in Rain Rain
10:49 AM 78.8 °F - 78.8 °F 100% 29.98 in 4.0 mi SE 5.8 mph - 0.28 in Rain , Thunderstorm Rain
10:53 AM 80.1 °F 86.4 °F 78.1 °F 94% 29.98 in 5.0 mi SSE 4.6 mph - 0.29 in Rain , Thunderstorm Rain
11:04 AM 79.0 °F - 77.0 °F 94% 29.97 in 10.0 mi SW 3.5 mph - 0.00 in Rain Rain
11:53 AM 82.9 °F 93.8 °F 79.0 °F 88% 29.96 in 10.0 mi Calm Calm - 0.04 in   Mostly Cloudy
12:53 PM 84.9 °F 97.5 °F 79.0 °F 82% 29.96 in 10.0 mi SSW 6.9 mph - 0.01 in   Scattered Clouds
1:53 PM 86.0 °F 99.3 °F 79.0 °F 79% 29.97 in 10.0 mi South 11.5 mph - N/A   Partly Cloudy
2:53 PM 84.9 °F 94.1 °F 75.9 °F 74% 29.94 in 10.0 mi SSW 11.5 mph - 0.00 in Rain Light Rain
3:23 PM 84.0 °F 91.9 °F 75.0 °F 74% 29.93 in 10.0 mi SSW 6.9 mph - 0.00 in Thunderstorm Partly Cloudy
3:38 PM 84.9 °F 93.3 °F 75.0 °F 72% 29.93 in 10.0 mi South 6.9 mph - 0.00 in   Clear
3:53 PM 84.9 °F 93.3 °F 75.0 °F 72% 29.92 in 10.0 mi SSW 8.1 mph - 0.00 in   Clear
4:53 PM 84.0 °F 96.0 °F 79.0 °F 85% 29.91 in 10.0 mi SSW 4.6 mph - 0.00 in Rain Light Rain
5:53 PM 86.0 °F 99.3 °F 79.0 °F 79% 29.90 in 10.0 mi SSW 4.6 mph - 0.00 in   Clear
6:53 PM 84.9 °F 96.6 °F 78.1 °F 80% 29.90 in 10.0 mi SW 10.4 mph - N/A   Clear
7:22 PM 84.9 °F 96.6 °F 78.1 °F 80% 29.91 in 10.0 mi SSW 11.5 mph - N/A   Mostly Cloudy
7:35 PM 84.9 °F 96.6 °F 78.1 °F 80% 29.91 in 10.0 mi SW 9.2 mph - N/A   Scattered Clouds
7:53 PM 84.9 °F 95.3 °F 77.0 °F 77% 29.91 in 10.0 mi SSW 8.1 mph - N/A   Partly Cloudy
8:19 PM 84.0 °F 93.7 °F 77.0 °F 79% 29.93 in 9.0 mi WSW 16.1 mph 21.9 mph N/A   Mostly Cloudy
8:28 PM 81.0 °F 87.3 °F 75.9 °F 85% 29.94 in 1.8 mi SSW 11.5 mph 23.0 mph 0.21 in Rain Heavy Rain
8:31 PM 81.0 °F 87.9 °F 77.0 °F 88% 29.94 in 6.0 mi SSW 10.4 mph - 0.24 in Rain , Thunderstorm Heavy Thunderstorms and Rain
8:53 PM 82.9 °F 93.8 °F 79.0 °F 88% 29.94 in 6.0 mi SSW 8.1 mph - 0.28 in Rain , Thunderstorm Light Thunderstorms and Rain
9:00 PM 82.9 °F 93.8 °F 79.0 °F 88% 29.95 in 10.0 mi SSW 8.1 mph - 0.00 in Rain , Thunderstorm Light Thunderstorms and Rain
9:39 PM 82.9 °F 92.8 °F 78.1 °F 85% 29.95 in 7.0 mi SSW 8.1 mph - 0.03 in Rain , Thunderstorm Rain
9:53 PM 84.0 °F 94.8 °F 78.1 °F 82% 29.95 in 10.0 mi SSW 6.9 mph - 0.03 in   Mostly Cloudy
10:30 PM 82.0 °F 89.4 °F 75.9 °F 82% 29.98 in 10.0 mi WSW 11.5 mph 17.3 mph 0.00 in Rain , Thunderstorm Light Rain
10:44 PM 80.1 °F 84.5 °F 73.9 °F 81% 29.98 in 10.0 mi West 16.1 mph 27.6 mph 0.01 in Rain , Thunderstorm Light Rain
10:53 PM 79.0 °F - 75.9 °F 90% 29.98 in 10.0 mi WSW 11.5 mph 23.0 mph 0.01 in Rain , Thunderstorm Light Thunderstorms and Rain
11:31 PM 78.1 °F - 75.9 °F 93% 29.99 in 9.0 mi ESE 4.6 mph - 0.03 in Rain , Thunderstorm Light Rain
11:51 PM 78.8 °F - 75.2 °F 89% 29.99 in 7.0 mi East 4.6 mph - 0.05 in Rain , Thunderstorm Thunderstorms and Rain
11:53 PM 78.1 °F - 75.9 °F 93% 29.99 in 7.0 mi East 4.6 mph - 0.06 in Rain , Thunderstorm Thunderstorms and Rain